Weather History for Weslaco, TX

Change the Weather History Date:

Friday, August 2, 2013

  Actual Average (KMFE) Record (KMFE)
Temperature  
Mean Temperature 90 °F 88 °F  
Max Temperature 101 °F 98 °F 104 °F (2009)
Min Temperature 78 °F 77 °F 69 °F (1979)
Degree Days  
Heating Degree Days 0 0  
Month to date heating degree days 0  
Since 1 June heating degree days 0  
Since 1 July heating degree days 0  
Cooling Degree Days 24 23  
Month to date cooling degree days 45  
Year to date cooling degree days 2602  
Since 1 June cooling degree days 1347  
Growing Degree Days 40 (Base 50)    
Moisture  
Dew Point 67 °F    
Average Humidity 55    
Maximum Humidity 82    
Minimum Humidity 25    
Precipitation  
Precipitation 0.00 in 0.04 in 1.29 in (1963)
Month to date precipitation 0.09  
Year to date precipitation 11.45  
Sea Level Pressure  
Sea Level Pressure 29.93 in    
Wind  
Wind Speed 9 mph (SSE)    
Max Wind Speed 17 mph    
Max Gust Speed 24 mph    
Visibility 10 miles    
Events      
T = Trace of Precipitation, MM = Missing Value Source: NWS Daily Summary

Daily Weather History Graph

Daily Weather History Graph

Search for Another Location

Airport:

Trip Planner

Search our weather history database for the weather conditions in past years. The results will help you decide how hot, cold, wet, or windy it might be!

Date:

Astronomy

Aug. 02, 2013 Rise Set
Actual Time 6:58 AM CDT 8:17 PM CDT
Civil Twilight 6:33 AM CDT 8:42 PM CDT
Nautical Twilight 6:03 AM CDT 9:11 PM CDT
Astronomical Twilight 5:33 AM CDT 9:42 PM CDT
Moon 3:24 AM CDT (8/2) 5:12 PM CDT (8/2)
Length of Visible Light 14h 09m
Length of Day
13h 19m
Waning Crescent, 15% of the Moon is Illuminated
Aug 2
Waning Crescent
Aug 6
New
Aug 14
First Quarter
Aug 20
Full
Aug 28
Last Quarter

Hourly Weather History & Observations

Time (CDT) Temp. Heat Index Dew Point Humidity Pressure Visibility Wind Dir Wind Speed Gust Speed Precip Events Conditions
12:15 AM 82.6 °F 87.8 °F 72.1 °F 71% 29.96 in 10.0 mi SSE 9.2 mph - N/A   Clear
12:35 AM 82.4 °F 87.7 °F 72.5 °F 72% 29.96 in 10.0 mi SE 9.2 mph - N/A   Clear
12:55 AM 81.9 °F 87.0 °F 72.7 °F 74% 29.96 in 10.0 mi SSE 8.1 mph - N/A   Clear
1:15 AM 81.5 °F 86.3 °F 72.5 °F 74% 29.96 in 10.0 mi SSE 10.4 mph - N/A   Clear
1:35 AM 81.5 °F 86.3 °F 72.5 °F 74% 29.95 in 10.0 mi South 10.4 mph 17.3 mph N/A   Scattered Clouds
1:55 AM 81.1 °F 85.8 °F 72.5 °F 75% 29.95 in 10.0 mi SSE 6.9 mph - N/A   Scattered Clouds
2:15 AM 80.6 °F 85.0 °F 72.7 °F 77% 29.94 in 10.0 mi South 6.9 mph - N/A   Clear
2:35 AM 80.6 °F 85.0 °F 72.9 °F 77% 29.94 in 10.0 mi SSE 8.1 mph - N/A   Clear
2:55 AM 80.6 °F 85.2 °F 73.0 °F 78% 29.93 in 10.0 mi South 8.1 mph - N/A   Scattered Clouds
3:15 AM 80.6 °F 85.2 °F 73.0 °F 78% 29.93 in 10.0 mi South 6.9 mph - N/A   Mostly Cloudy
3:35 AM 80.6 °F 85.4 °F 73.4 °F 79% 29.92 in 10.0 mi South 5.8 mph - N/A   Mostly Cloudy
3:55 AM 80.2 °F 84.6 °F 73.0 °F 79% 29.92 in 10.0 mi South 5.8 mph - N/A   Scattered Clouds
4:15 AM 79.7 °F - 72.9 °F 80% 29.92 in 10.0 mi South 5.8 mph - N/A   Scattered Clouds
4:35 AM 79.5 °F - 72.7 °F 79% 29.92 in 10.0 mi South 4.6 mph - N/A   Scattered Clouds
4:55 AM 79.7 °F - 72.7 °F 79% 29.92 in 10.0 mi South 5.8 mph - N/A   Mostly Cloudy
5:15 AM 79.3 °F - 72.5 °F 79% 29.92 in 10.0 mi South 5.8 mph - N/A   Scattered Clouds
5:35 AM 79.0 °F - 72.5 °F 80% 29.92 in 10.0 mi South 5.8 mph - N/A   Clear
5:55 AM 78.8 °F - 72.5 °F 81% 29.92 in 10.0 mi South 4.6 mph - N/A   Clear
6:15 AM 78.4 °F - 72.5 °F 82% 29.92 in 10.0 mi South 5.8 mph - N/A   Clear
6:35 AM 78.3 °F - 72.5 °F 82% 29.92 in 10.0 mi SSE 5.8 mph - N/A   Clear
6:55 AM 78.1 °F - 72.3 °F 82% 29.93 in 10.0 mi Calm Calm - N/A   Clear
7:35 AM 78.4 °F - 72.1 °F 81% 29.93 in 7.0 mi Calm Calm - N/A   Clear
7:55 AM 79.7 °F - 72.1 °F 78% 29.93 in 7.0 mi SE 3.5 mph - N/A   Clear
8:15 AM 80.8 °F 85.2 °F 72.5 °F 76% 29.94 in 7.0 mi SSE 6.9 mph - N/A   Clear
8:35 AM 82.6 °F 87.8 °F 72.3 °F 71% 29.95 in 7.0 mi SSE 9.2 mph - N/A   Clear
8:55 AM 83.1 °F 88.1 °F 71.8 °F 68% 29.96 in 7.0 mi SSE 8.1 mph - N/A   Clear
9:15 AM 84.4 °F 90.0 °F 71.8 °F 66% 29.97 in 10.0 mi SSE 9.2 mph - N/A   Clear
9:35 AM 83.8 °F 88.9 °F 71.6 °F 66% 29.96 in 7.0 mi SSE 8.1 mph - N/A   Clear
9:55 AM 84.7 °F 90.4 °F 71.6 °F 65% 29.97 in 10.0 mi SSE 8.1 mph - N/A   Clear
10:15 AM 87.3 °F 92.8 °F 70.9 °F 58% 29.97 in 10.0 mi South 10.4 mph - N/A   Clear
10:35 AM 89.2 °F 93.6 °F 69.1 °F 51% 29.97 in 10.0 mi South 10.4 mph - N/A   Clear
10:55 AM 90.3 °F 93.9 °F 67.8 °F 47% 29.97 in 10.0 mi SSE 11.5 mph 17.3 mph N/A   Clear
11:15 AM 92.1 °F 95.7 °F 67.3 °F 44% 29.96 in 10.0 mi SE 10.4 mph 16.1 mph N/A   Clear
11:35 AM 93.0 °F 95.9 °F 66.4 °F 41% 29.96 in 10.0 mi SSE 10.4 mph - N/A   Clear
11:55 AM 94.5 °F 96.1 °F 63.5 °F 36% 29.96 in 10.0 mi SSE 11.5 mph 18.4 mph N/A   Clear
12:15 PM 95.2 °F 96.8 °F 63.1 °F 35% 29.95 in 10.0 mi South 11.5 mph 17.3 mph N/A   Clear
12:35 PM 96.8 °F 98.0 °F 62.6 °F 32% 29.95 in 10.0 mi South 15.0 mph 19.6 mph N/A   Clear
12:55 PM 96.3 °F 97.6 °F 62.6 °F 33% 29.94 in 10.0 mi SSE 11.5 mph 17.3 mph N/A   Clear
1:15 PM 97.3 °F 98.4 °F 62.4 °F 31% 29.93 in 10.0 mi SSE 9.2 mph 17.3 mph N/A   Clear
1:35 PM 98.1 °F 99.1 °F 61.3 °F 30% 29.93 in 10.0 mi ESE 5.8 mph - N/A   Clear
1:55 PM 99.1 °F 100.3 °F 61.9 °F 29% 29.91 in 7.0 mi South 12.7 mph 17.3 mph N/A   Clear
2:15 PM 99.5 °F 99.9 °F 60.4 °F 27% 29.91 in 10.0 mi South 8.1 mph - N/A   Clear
2:35 PM 99.1 °F 99.3 °F 59.5 °F 27% 29.90 in 7.0 mi SE 8.1 mph 20.7 mph N/A   Clear
2:55 PM 100.0 °F 100.2 °F 59.2 °F 26% 29.89 in 10.0 mi ESE 10.4 mph - N/A   Clear
3:15 PM 100.0 °F 99.7 °F 57.9 °F 25% 29.89 in 10.0 mi SSE 11.5 mph 20.7 mph N/A   Clear
3:35 PM 100.4 °F 100.2 °F 58.6 °F 25% 29.88 in 10.0 mi ESE 12.7 mph - N/A   Clear
3:55 PM 101.3 °F 101.6 °F 59.9 °F 25% 29.88 in 10.0 mi SSE 10.4 mph 19.6 mph N/A   Scattered Clouds
4:15 PM 100.4 °F 100.7 °F 59.2 °F 26% 29.88 in 10.0 mi SE 11.5 mph 19.6 mph N/A   Clear
4:35 PM 99.5 °F 99.9 °F 59.9 °F 27% 29.87 in 10.0 mi ESE 10.4 mph 24.2 mph N/A   Scattered Clouds
4:55 PM 99.5 °F 99.4 °F 59.2 °F 26% 29.87 in 10.0 mi ESE 13.8 mph 23.0 mph N/A   Clear
5:15 PM 98.8 °F 100.3 °F 62.1 °F 30% 29.87 in 10.0 mi SE 17.3 mph 20.7 mph N/A   Scattered Clouds
5:35 PM 97.3 °F 97.9 °F 60.6 °F 30% 29.87 in 10.0 mi SE 16.1 mph 21.9 mph N/A   Scattered Clouds
5:55 PM 96.3 °F 95.9 °F 58.8 °F 29% 29.87 in 10.0 mi SE 15.0 mph 24.2 mph N/A   Clear
6:15 PM 95.4 °F 94.6 °F 57.9 °F 29% 29.87 in 10.0 mi SE 15.0 mph 23.0 mph N/A   Clear
6:35 PM 94.1 °F 92.8 °F 57.6 °F 29% 29.87 in 10.0 mi SE 12.7 mph 18.4 mph N/A   Clear
6:55 PM 93.7 °F 93.0 °F 58.5 °F 31% 29.88 in 10.0 mi SE 13.8 mph 21.9 mph N/A   Clear
7:15 PM 92.7 °F 91.5 °F 58.1 °F 31% 29.88 in 10.0 mi SE 10.4 mph 19.6 mph N/A   Clear
7:35 PM 92.1 °F 90.5 °F 56.8 °F 30% 29.89 in 10.0 mi SE 13.8 mph 18.4 mph N/A   Clear
7:55 PM 90.5 °F 89.3 °F 57.9 °F 33% 29.90 in 10.0 mi SE 13.8 mph 18.4 mph N/A   Clear
8:15 PM 89.1 °F 89.6 °F 62.6 °F 41% 29.90 in 10.0 mi SE 10.4 mph 20.7 mph N/A   Clear
8:35 PM 88.0 °F 90.3 °F 66.0 °F 48% 29.91 in 10.0 mi SE 11.5 mph 16.1 mph N/A   Clear
8:55 PM 87.1 °F 89.9 °F 67.1 °F 51% 29.92 in 10.0 mi SE 9.2 mph 17.3 mph N/A   Clear
9:15 PM 86.5 °F 90.0 °F 68.2 °F 54% 29.93 in 10.0 mi ESE 10.4 mph 16.1 mph N/A   Clear
9:35 PM 86.0 °F 90.4 °F 69.4 °F 58% 29.93 in 10.0 mi ESE 15.0 mph - N/A   Clear
9:55 PM 85.1 °F 89.8 °F 70.3 °F 61% 29.93 in 10.0 mi ESE 8.1 mph 17.3 mph N/A   Clear
10:15 PM 84.4 °F 89.0 °F 70.7 °F 63% 29.94 in 10.0 mi ESE 9.2 mph 18.4 mph N/A   Clear
10:35 PM 83.8 °F 88.9 °F 71.2 °F 66% 29.95 in 10.0 mi SE 10.4 mph 17.3 mph N/A   Clear
10:55 PM 83.3 °F 88.4 °F 71.8 °F 68% 29.96 in 10.0 mi SE 11.5 mph 16.1 mph N/A   Clear
11:15 PM 82.9 °F 88.3 °F 72.1 °F 70% 29.96 in 10.0 mi SE 6.9 mph 16.1 mph N/A   Clear
11:35 PM 82.4 °F 87.4 °F 72.1 °F 71% 29.96 in 10.0 mi SE 9.2 mph - N/A   Clear
11:55 PM 82.4 °F 87.7 °F 72.5 °F 72% 29.96 in 10.0 mi SE 9.2 mph - N/A   Clear